WA6MHA-11 Weather Reports


time (UTC)temp
C
wind
direction
speed
KPH
gust
KPH
rain 1hr
cm
rain 24hr
cm
rain mn
cm
humidity
%
barometer
mb
20260507223837 31 162 8.0 11.3 0.00 0.00 0.00 25 1014.7
20260507223432 31 140 4.8 11.3 0.00 0.00 0.00 25 1014.7
20260507223029 31 182 3.2 9.7 0.00 0.00 0.00 25 1014.8
20260507222628 30 137 3.2 14.5 0.00 0.00 0.00 25 1014.7
20260507221825 30 171 4.8 14.5 0.00 0.00 0.00 25 1014.9
20260507221424 30 130 14.5 14.5 0.00 0.00 0.00 25 1014.8
20260507221022 30 144 9.7 16.1 0.00 0.00 0.00 25 1014.8
20260507220621 30 155 4.8 14.5 0.00 0.00 0.00 25 1014.9
20260507220220 30 146 12.9 14.5 0.00 0.00 0.00 25 1014.9
20260507215418 31 157 9.7 16.1 0.00 0.00 0.00 25 1015.1
20260507214618 31 174 4.8 11.3 0.00 0.00 0.00 25 1015.2
20260507214215 31 148 12.9 16.1 0.00 0.00 0.00 24 1015.1
20260507213812 32 180 9.7 11.3 0.00 0.00 0.00 24 1015.2
20260507213411 31 175 16.1 19.3 0.00 0.00 0.00 24 1015.3
20260507212608 31 162 6.4 32.2 0.00 0.00 0.00 24 1015.3
20260507212207 32 139 9.7 17.7 0.00 0.00 0.00 24 1015.4
20260507211806 32 183 14.5 17.7 0.00 0.00 0.00 24 1015.4
20260507211406 32 78 6.4 19.3 0.00 0.00 0.00 24 1015.4
20260507211014 32 180 14.5 20.9 0.00 0.00 0.00 24 1015.5
20260507210605 31 216 6.4 22.5 0.00 0.00 0.00 24 1015.5
20260507210200 31 167 8.0 25.7 0.00 0.00 0.00 25 1015.6
20260507204959 31 175 9.7 29.0 0.00 0.00 0.00 25 1015.7
20260507204556 31 195 11.3 29.0 0.00 0.00 0.00 25 1015.7
20260507204154 31 137 24.1 24.1 0.00 0.00 0.00 25 1015.8
20260507203352 32 195 14.5 19.3 0.00 0.00 0.00 25 1015.9
20260507202950 31 153 9.7 16.1 0.00 0.00 0.00 25 1015.9
20260507202551 31 162 3.2 19.3 0.00 0.00 0.00 25 1015.9
20260507201746 31 166 4.8 27.4 0.00 0.00 0.00 25 1015.9
20260507200543 31 177 12.9 12.9 0.00 0.00 0.00 25 1016.2
20260507195740 30 135 19.3 27.4 0.00 0.00 0.00 25 1016.2
20260507195341 30 170 6.4 14.5 0.00 0.00 0.00 25 1016.2
20260507194544 29 128 12.9 17.7 0.00 0.00 0.00 25 1016.3
20260507193734 29 81 9.7 24.1 0.00 0.00 0.00 25 1016.4
20260507193333 29 155 17.7 29.0 0.00 0.00 0.00 25 1016.4
20260507192931 29 121 6.4 25.7 0.00 0.00 0.00 26 1016.4
20260507192530 29 101 19.3 19.3 0.00 0.00 0.00 25 1016.5
20260507190125 29 187 4.8 32.2 0.00 0.00 0.00 25 1016.6
20260507185721 28 135 12.9 20.9 0.00 0.00 0.00 25 1016.6
20260507185324 28 117 6.4 20.9 0.00 0.00 0.00 25 1016.7
20260507184517 28 121 22.5 27.4 0.00 0.00 0.00 26 1016.7
20260507184115 28 83 1.6 24.1 0.00 0.00 0.00 26 1016.8
20260507183313 28 75 9.7 20.9 0.00 0.00 0.00 25 1016.8
20260507182912 27 135 19.3 19.3 0.00 0.00 0.00 25 1016.9
20260507182511 27 81 22.5 22.5 0.00 0.00 0.00 26 1016.8
20260507182111 29 70 12.9 16.1 0.00 0.00 0.00 26 1016.9
20260507175702 27 72 8.0 16.1 0.00 0.00 0.00 26 1016.9
20260507175301 27 67 14.5 20.9 0.00 0.00 0.00 26 1017.0
20260507173256 27 135 3.2 8.0 0.00 0.00 0.00 27 1017.0
20260507172852 27 135 3.2 19.3 0.00 0.00 0.00 28 1017.1
20260507172451 26 85 3.2 11.3 0.00 0.00 0.00 28 1017.2
20260507172053 26 63 3.2 17.7 0.00 0.00 0.00 29 1017.3
20260507171249 26 126 1.6 9.7 0.00 0.00 0.00 29 1017.2
20260507170847 25 132 9.7 12.9 0.00 0.00 0.00 30 1017.1
20260507165647 25 135 4.8 6.4 0.00 0.00 0.00 31 1017.2
20260507165241 24 119 4.8 11.3 0.00 0.00 0.00 31 1017.2
20260507164840 24 72 11.3 11.3 0.00 0.00 0.00 31 1017.2
20260507164439 24 135 9.7 12.9 0.00 0.00 0.00 32 1017.1
20260507164038 24 97 1.6 9.7 0.00 0.00 0.00 32 1017.3
20260507163635 24 50 6.4 6.4 0.00 0.00 0.00 33 1017.3
20260507163234 24 40 4.8 9.7 0.00 0.00 0.00 33 1017.3
20260507162833 24 123 6.4 9.7 0.00 0.00 0.00 34 1017.2
20260507162031 24 87 8.0 11.3 0.00 0.00 0.00 35 1017.2
20260507161629 24 130 9.7 11.3 0.00 0.00 0.00 36 1017.3
20260507161228 25 137 4.8 11.3 0.00 0.00 0.00 37 1017.2
20260507160827 25 166 1.6 11.3 0.00 0.00 0.00 37 1017.3
20260507160429 24 135 9.7 9.7 0.00 0.00 0.00 38 1017.3
20260507160025 24 51 1.6 6.4 0.00 0.00 0.00 39 1017.3
20260507155624 24 101 1.6 4.8 0.00 0.00 0.00 40 1017.3
20260507155221 23 105 3.2 6.4 0.00 0.00 0.00 40 1017.3
20260507154823 23 244 0.0 3.2 0.00 0.00 0.00 41 1017.4
20260507153617 22 83 1.6 3.2 0.00 0.00 0.00 44 1017.4
20260507153215 22 45 4.8 4.8 0.00 0.00 0.00 44 1017.6
20260507152813 22 337 1.6 4.8 0.00 0.00 0.00 45 1017.5
20260507152412 22 83 4.8 4.8 0.00 0.00 0.00 46 1017.4
20260507152011 22 85 0.0 3.2 0.00 0.00 0.00 47 1017.5
20260507151610 21 78 1.6 1.6 0.00 0.00 0.00 48 1017.5
20260507150811 21 135 0.0 1.6 0.00 0.00 0.00 50 1017.6
20260507150406 20 227 0.0 1.6 0.00 0.00 0.00 50 1017.6
20260507150006 20 36 0.0 1.6 0.00 0.00 0.00 51 1017.6
20260507145604 20 335 0.0 1.6 0.00 0.00 0.00 52 1017.5
20260507145202 19 330 0.0 0.0 0.00 0.00 0.00 52 1017.6
20260507144802 19 229 0.0 0.0 0.00 0.00 0.00 53 1017.6
20260507143958 18 180 0.0 0.0 0.00 0.00 0.00 53 1017.7
20260507143156 17 180 0.0 0.0 0.00 0.00 0.00 54 1017.6
20260507142755 17 180 0.0 0.0 0.00 0.00 0.00 55 1017.5
20260507142354 16 180 0.0 0.0 0.00 0.00 0.00 55 1017.5
20260507141550 15 45 0.0 0.0 0.00 0.00 0.00 56 1017.5
20260507141149 15 42 0.0 0.0 0.00 0.00 0.00 56 1017.4
20260507140748 14 45 0.0 0.0 0.00 0.00 0.00 56 1017.4
20260507135946 13 85 0.0 0.0 0.00 0.00 0.00 57 1017.4
20260507135545 13 135 0.0 0.0 0.00 0.00 0.00 57 1017.3
20260507135143 12 270 0.0 0.0 0.00 0.00 0.00 57 1017.3
20260507134742 12 270 0.0 0.0 0.00 0.00 0.00 57 1017.3
20260507134340 11 270 0.0 0.0 0.00 0.00 0.00 57 1017.3
20260507133940 11 274 0.0 0.0 0.00 0.00 0.00 57 1017.1
20260507133538 11 270 0.0 0.0 0.00 0.00 0.00 58 1017.1
20260507133138 10 274 0.0 0.0 0.00 0.00 0.00 57 1017.1
20260507132735 10 279 0.0 0.0 0.00 0.00 0.00 57 1017.1
20260507132334 10 233 0.0 0.0 0.00 0.00 0.00 57 1017.0
20260507131933 9 274 0.0 0.0 0.00 0.00 0.00 57 1017.2
20260507131532 9 227 0.0 0.0 0.00 0.00 0.00 57 1017.1
20260507131130 9 232 0.0 0.0 0.00 0.00 0.00 57 1017.0
20260507130729 9 270 0.0 0.0 0.00 0.00 0.00 57 1017.0
20260507130327 9 45 0.0 0.0 0.00 0.00 0.00 57 1017.0
20260507125926 9 279 0.0 0.0 0.00 0.00 0.00 57 1017.0
20260507125124 9 301 0.0 0.0 0.00 0.00 0.00 57 1017.0
20260507124723 9 315 0.0 0.0 0.00 0.00 0.00 57 1016.9
20260507124322 9 310 0.0 1.6 0.00 0.00 0.00 57 1017.0
20260507123920 9 310 0.0 0.0 0.00 0.00 0.00 57 1016.9
20260507123519 9 310 0.0 0.0 0.00 0.00 0.00 56 1016.9
20260507123117 9 310 0.0 1.6 0.00 0.00 0.00 56 1016.9
20260507122716 9 330 1.6 1.6 0.00 0.00 0.00 56 1016.8
20260507122315 9 337 0.0 0.0 0.00 0.00 0.00 56 1016.8
20260507121915 9 306 0.0 0.0 0.00 0.00 0.00 56 1016.8
20260507121113 9 42 0.0 0.0 0.00 0.00 0.00 56 1016.9
20260507120710 9 42 0.0 0.0 0.00 0.00 0.00 56 1017.0
20260507120308 9 40 0.0 0.0 0.00 0.00 0.00 56 1016.9
20260507115507 9 45 0.0 0.0 0.00 0.00 0.00 56 1016.9
20260507115104 9 42 0.0 1.6 0.00 0.00 0.00 56 1016.9
20260507114302 10 184 1.6 1.6 0.00 0.00 0.00 56 1016.9
20260507113901 10 231 0.0 0.0 0.00 0.00 0.00 56 1017.0
20260507113501 10 184 0.0 0.0 0.00 0.00 0.00 56 1017.1
20260507113101 10 232 0.0 0.0 0.00 0.00 0.00 56 1017.1
20260507112258 10 270 1.6 1.6 0.00 0.00 0.00 56 1017.0
20260507111459 10 312 0.0 0.0 0.00 0.00 0.00 56 1017.0
20260507111052 10 306 0.0 0.0 0.00 0.00 0.00 56 1017.1
20260507110655 10 270 0.0 1.6 0.00 0.00 0.00 55 1017.2
20260507110249 10 270 0.0 0.0 0.00 0.00 0.00 55 1017.2
20260507105848 10 233 0.0 0.0 0.00 0.00 0.00 55 1017.2
20260507105047 10 42 0.0 0.0 0.00 0.00 0.00 55 1017.2
20260507104644 10 45 0.0 0.0 0.00 0.00 0.00 55 1017.2
20260507104243 10 45 0.0 0.0 0.00 0.00 0.00 55 1017.2
20260507103841 10 42 0.0 0.0 0.00 0.00 0.00 55 1017.2
20260507102638 10 319 0.0 0.0 0.00 0.00 0.00 55 1017.3
20260507101835 10 292 0.0 0.0 0.00 0.00 0.00 55 1017.4
20260507101433 10 283 0.0 0.0 0.00 0.00 0.00 55 1017.4
20260507101032 10 232 0.0 0.0 0.00 0.00 0.00 55 1017.4
20260507100230 11 306 0.0 0.0 0.00 0.00 0.00 55 1017.4
20260507095829 11 274 0.0 1.6 0.00 0.00 0.00 55 1017.4
20260507095428 10 292 0.0 0.0 0.00 0.00 0.00 54 1017.5
20260507094625 11 339 0.0 0.0 0.00 0.00 0.00 54 1017.5
20260507094223 11 279 0.0 0.0 0.00 0.00 0.00 54 1017.6
20260507093822 11 274 0.0 0.0 0.00 0.00 0.00 54 1017.7
20260507090612 11 274 0.0 0.0 0.00 0.00 0.00 54 1017.9
20260507090211 11 274 0.0 0.0 0.00 0.00 0.00 54 1018.0
20260507085809 11 288 0.0 0.0 0.00 0.00 0.00 53 1018.0
20260507085409 11 292 0.0 0.0 0.00 0.00 0.00 53 1018.0
20260507085007 11 351 0.0 3.2 0.00 0.00 0.00 53 1018.0
20260507084606 11 182 0.0 0.0 0.00 0.00 0.00 53 1018.1
20260507084205 11 274 0.0 1.6 0.00 0.00 0.00 53 1018.1
20260507083803 11 306 0.0 0.0 0.00 0.00 0.00 53 1018.2
20260507082954 11 186 0.0 0.0 0.00 0.00 0.00 53 1018.3
20260507081755 12 279 0.0 0.0 0.00 0.00 0.00 53 1018.3
20260507081349 12 235 0.0 1.6 0.00 0.00 0.00 52 1018.4
20260507081110 12 270 0.0 1.6 0.00 0.00 0.00 52 1018.4
20260507080948 12 270 0.0 1.6 0.00 0.00 0.00 52 1018.4
20260507080547 12 180 0.0 1.6 0.00 0.00 0.00 52 1018.4
20260507080147 12 274 0.0 1.6 0.00 0.00 0.00 52 1018.5
20260507075343 12 279 1.6 1.6 0.00 0.00 0.00 52 1018.4
20260507074541 12 315 0.0 0.0 0.00 0.00 0.00 52 1018.4
20260507074139 12 328 0.0 0.0 0.00 0.00 0.00 52 1018.5
20260507072937 12 229 0.0 0.0 0.00 0.00 0.00 51 1018.5
20260507072133 13 279 0.0 0.0 0.00 0.00 0.00 51 1018.6
20260507071731 13 288 0.0 0.0 0.00 0.00 0.00 51 1018.6
20260507070129 13 279 0.0 0.0 0.00 0.00 0.00 50 1018.5
20260507065727 13 274 0.0 0.0 0.00 0.00 0.00 50 1018.5
20260507064926 13 270 0.0 0.0 0.00 0.00 0.00 50 1018.4
20260507064521 13 274 0.0 0.0 0.00 0.00 0.00 50 1018.5
20260507064120 13 202 0.0 0.0 0.00 0.00 0.00 50 1018.5
20260507063718 13 182 0.0 0.0 0.00 0.00 0.00 50 1018.5
20260507063317 13 234 0.0 0.0 0.00 0.00 0.00 50 1018.6
20260507062515 13 292 0.0 0.0 0.00 0.00 0.00 49 1018.6
20260507062114 13 182 0.0 0.0 0.00 0.00 0.00 49 1018.6
20260507061713 13 232 0.0 0.0 0.00 0.00 0.00 49 1018.5
20260507061311 13 42 0.0 0.0 0.00 0.00 0.00 49 1018.4
20260507055709 14 78 1.6 1.6 0.00 0.00 0.00 48 1018.5
20260507055306 14 42 0.0 1.6 0.00 0.00 0.00 48 1018.5
20260507054903 14 78 0.0 0.0 0.00 0.00 0.00 48 1018.5
20260507054502 14 85 0.0 0.0 0.00 0.00 0.00 48 1018.5
20260507054100 14 81 1.6 1.6 0.00 0.00 0.00 48 1018.4
20260507053659 14 135 0.0 0.0 0.00 0.00 0.00 48 1018.5
20260507053258 14 103 0.0 1.6 0.00 0.00 0.00 48 1018.5
20260507052857 15 135 3.2 3.2 0.00 0.00 0.00 47 1018.5
20260507052455 15 137 3.2 3.2 0.00 0.00 0.00 47 1018.5
20260507052054 15 135 3.2 3.2 0.00 0.00 0.00 47 1018.5
20260507051653 15 135 1.6 3.2 0.00 0.00 0.00 47 1018.5
20260507051252 15 135 3.2 3.2 0.00 0.00 0.00 47 1018.5
20260507050850 15 135 1.6 3.2 0.00 0.00 0.00 47 1018.4
20260507050449 15 135 3.2 3.2 0.00 0.00 0.00 47 1018.5
20260507044846 15 85 1.6 3.2 0.00 0.00 0.00 46 1018.4
20260507044041 15 135 4.8 6.4 0.00 0.00 0.00 46 1018.3
20260507043239 15 135 3.2 4.8 0.00 0.00 0.00 45 1018.3
20260507042441 16 78 1.6 3.2 0.00 0.00 0.00 45 1018.2
20260507042036 16 130 3.2 3.2 0.00 0.00 0.00 45 1018.2
20260507041233 16 135 3.2 4.8 0.00 0.00 0.00 44 1018.2
20260507040832 16 135 4.8 4.8 0.00 0.00 0.00 44 1018.1
20260507040029 16 135 3.2 3.2 0.00 0.00 0.00 43 1018.0
20260507034824 16 121 3.2 3.2 0.00 0.00 0.00 43 1017.8
20260507034427 16 87 3.2 4.8 0.00 0.00 0.00 42 1017.9
20260507034022 17 83 4.8 4.8 0.00 0.00 0.00 42 1017.8
20260507033621 17 92 4.8 6.4 0.00 0.00 0.00 41 1017.8
20260507033222 17 85 4.8 6.4 0.00 0.00 0.00 41 1017.8
20260507032417 17 81 3.2 3.2 0.00 0.00 0.00 40 1017.6
20260507032015 17 132 3.2 4.8 0.00 0.00 0.00 40 1017.6
20260507031213 17 105 4.8 8.0 0.00 0.00 0.00 39 1017.4
20260507030812 18 130 6.4 6.4 0.00 0.00 0.00 39 1017.5
20260507030410 18 135 4.8 4.8 0.00 0.00 0.00 38 1017.5
20260507025207 18 112 6.4 6.4 0.00 0.00 0.00 37 1017.2
20260507024805 18 126 3.2 6.4 0.00 0.00 0.00 36 1017.2
20260507024405 18 112 6.4 9.7 0.00 0.00 0.00 36 1017.1
20260507024003 19 108 6.4 9.7 0.00 0.00 0.00 35 1017.1
20260507023601 19 110 6.4 11.3 0.00 0.00 0.00 35 1017.0
20260507023202 19 130 6.4 8.0 0.00 0.00 0.00 34 1016.9
20260507022804 20 132 4.8 17.7 0.00 0.00 0.00 34 1016.9
20260507022403 20 137 8.0 24.1 0.00 0.00 0.00 34 1016.8
20260507021957 20 132 19.3 24.1 0.00 0.00 0.00 33 1016.8
20260507021555 20 135 12.9 19.3 0.00 0.00 0.00 33 1016.7
20260507021153 20 135 9.7 16.1 0.00 0.00 0.00 32 1016.7
20260507020752 21 135 16.1 17.7 0.00 0.00 0.00 32 1016.7
20260507015950 21 135 11.3 16.1 0.00 0.00 0.00 31 1016.6
20260507015549 21 137 9.7 17.7 0.00 0.00 0.00 31 1016.5
20260507015153 22 135 12.9 16.1 0.00 0.00 0.00 31 1016.5
20260507014746 22 132 11.3 14.5 0.00 0.00 0.00 30 1016.5
20260507013943 22 135 14.5 14.5 0.00 0.00 0.00 30 1016.5
20260507013545 23 132 9.7 14.5 0.00 0.00 0.00 29 1016.5
20260507012339 25 135 11.3 14.5 0.00 0.00 0.00 29 1016.5
20260507010735 26 190 6.4 12.9 0.00 0.00 0.00 28 1016.5
20260507010332 26 191 9.7 11.3 0.00 0.00 0.00 28 1016.3
20260507005930 26 204 11.3 11.3 0.00 0.00 0.00 27 1016.4
20260507005529 26 22 3.2 19.3 0.00 0.00 0.00 27 1016.3
20260507005129 26 180 4.8 11.3 0.00 0.00 0.00 27 1016.4
20260507003925 26 185 6.4 16.1 0.00 0.00 0.00 27 1016.3
20260507003523 26 200 9.7 14.5 0.00 0.00 0.00 27 1016.3
20260507003121 26 184 1.6 12.9 0.00 0.00 0.00 26 1016.4
20260507002720 26 154 3.2 14.5 0.00 0.00 0.00 26 1016.4
20260507001923 27 191 6.4 12.9 0.00 0.00 0.00 26 1016.4
20260507001516 27 185 14.5 19.3 0.00 0.00 0.00 26 1016.3
20260507001116 27 230 4.8 14.5 0.00 0.00 0.00 26 1016.4
20260507000714 27 174 6.4 16.1 0.00 0.00 0.00 26 1016.3
20260507000314 27 172 8.0 16.1 0.00 0.00 0.00 25 1016.4
20260506235913 27 180 9.7 14.5 0.00 0.00 0.00 26 1016.2
20260506235543 27 182 3.2 9.7 0.00 0.00 0.00 25 1016.3
20260506235511 27 182 3.2 9.7 0.00 0.00 0.00 25 1016.3
20260506234707 27 150 4.8 16.1 0.00 0.00 0.00 25 1016.4
20260506233504 27 166 11.3 12.9 0.00 0.00 0.00 25 1016.3
20260506233103 27 139 9.7 12.9 0.00 0.00 0.00 25 1016.3
20260506232701 27 231 6.4 9.7 0.00 0.00 0.00 25 1016.3
20260506231858 26 128 4.8 14.5 0.00 0.00 0.00 25 1016.4
20260506231457 26 168 3.2 14.5 0.00 0.00 0.00 25 1016.4
20260506231056 27 135 12.9 17.7 0.00 0.00 0.00 24 1016.4
20260506230655 27 112 4.8 17.7 0.00 0.00 0.00 24 1016.4
20260506230254 27 155 12.9 14.5 0.00 0.00 0.00 24 1016.5
20260506225852 28 216 6.4 16.1 0.00 0.00 0.00 25 1016.5